Weather reports worldwide

Advertisment
Linton-On-Ouse, United Kingdom (3266): temperature & dewpoint: 11.08.2018 13:00:00 - 17.08.2018 13:00:00 (BST)Linton-On-Ouse, United Kingdom (3266): temperature -20cm & temperature -100cm: 11.08.2018 13:00:00 - 17.08.2018 13:00:00 (BST)Linton-On-Ouse, United Kingdom (3266): wind speed & gusts: 11.08.2018 13:00:00 - 17.08.2018 13:00:00 (BST)Linton-On-Ouse, United Kingdom (3266): wind direction: 11.08.2018 13:00:00 - 17.08.2018 13:00:00 (BST)Linton-On-Ouse, United Kingdom (3266): reduced air pressure: 11.08.2018 13:00:00 - 17.08.2018 13:00:00 (BST)Linton-On-Ouse, United Kingdom (3266): visibility: 11.08.2018 13:00:00 - 17.08.2018 13:00:00 (BST)Linton-On-Ouse, United Kingdom (3266): precipitation: 11.08.2018 13:00:00 - 17.08.2018 13:00:00 (BST)
Date & Time tt [°C] td [°C] tt -20cm [°C] tt -100cm [°C] ff [km/h] ff [kn] fx [km/h] fx [kn] dd ppp [hPa] vv [km] rr [mm]
17.08.2018 13:00:00 16,8 9,5 - - 22 12 - - WSW 1016,7 10 0,0
17.08.2018 12:00:00 16,2 9,8 - - 28 15 - - SW 1017,1 10 0,0
17.08.2018 11:00:00 16,4 9,6 - - 28 15 - - WSW 1016,8 10 0,0
17.08.2018 10:00:00 16,6 9,4 17,4 16,7 21 11 - - WSW 1016,5 10 0,0
17.08.2018 09:00:00 15,4 10,7 - - 15 8 - - SW 1016,4 10 0,0
17.08.2018 08:00:00 14,1 10,8 - - 18 10 - - SSW 1016,0 10 0,0
17.08.2018 07:00:00 11,5 10,2 - - 9 5 - - S 1015,8 10 0,0
17.08.2018 06:00:00 10,5 9,5 - - 8 4 - - S 1015,4 10 0,0
17.08.2018 05:00:00 11,4 10,0 - - 11 6 - - SW 1014,9 10 0,0
17.08.2018 04:00:00 11,6 10,0 - - 13 7 - - SSW 1014,9 10 0,0
17.08.2018 03:00:00 12,1 10,3 - - 11 6 - - SSW 1014,5 10 0,0
17.08.2018 02:00:00 11,7 10,0 - - 8 4 - - WSW 1014,3 23 0,0
17.08.2018 01:00:00 12,9 10,3 - - 15 8 - - WSW 1014,0 10 0,0
17.08.2018 00:00:00 12,6 10,1 - - 11 6 - - SW 1013,9 10 0,0
16.08.2018 23:00:00 13,7 10,2 - - 11 6 - - SW 1013,5 26 0,0
16.08.2018 22:00:00 14,0 10,1 - - 15 8 - - SW 1012,9 23 0,0
16.08.2018 21:00:00 14,4 10,3 - - 9 5 - - SW 1012,4 27 0,0
16.08.2018 20:00:00 15,2 11,6 - - 15 8 - - WSW 1011,8 26 0,2
16.08.2018 19:00:00 16,4 9,4 - - 21 11 - - W 1011,6 10 0,0
16.08.2018 18:00:00 17,3 8,1 - - 24 13 - - WSW 1010,8 10 0,0
16.08.2018 17:00:00 16,5 9,9 - - 26 14 48 26 WSW 1010,6 10 0,0
16.08.2018 16:00:00 17,5 9,2 - - 26 14 46 25 WSW 1010,2 10 0,0
16.08.2018 15:00:00 17,5 9,4 - - 24 13 - - W 1009,7 10 0,0
16.08.2018 14:00:00 18,8 8,3 - - 24 13 - - W 1009,2 10 0,0
16.08.2018 13:00:00 18,4 9,8 - - 21 11 - - WSW 1009,2 10 0,0
16.08.2018 12:00:00 17,4 8,9 - - 24 13 - - WSW 1009,2 10 0,0
16.08.2018 11:00:00 16,9 11,0 - - 21 11 - - WSW 1009,1 10 0,0
16.08.2018 10:00:00 15,0 10,6 18,0 16,7 18 10 - - WSW 1009,0 10 0,0
16.08.2018 09:00:00 14,8 10,6 - - 15 8 - - W 1008,9 10 0,0
16.08.2018 08:00:00 14,5 10,8 - - 11 6 - - W 1008,5 10 0,0
16.08.2018 07:00:00 14,9 13,1 - - 29 16 48 26 WSW 1007,7 5 0,0
16.08.2018 06:00:00 17,1 14,1 - - 18 10 - - SW 1007,3 10 0,0
16.08.2018 05:00:00 17,1 14,1 - - 15 8 - - SSW 1007,2 10 0,0
16.08.2018 04:00:00 17,7 15,1 - - 13 7 - - SW 1007,7 9 0,2
16.08.2018 03:00:00 18,4 15,6 - - 16 9 - - SSW 1008,0 10 0,0
16.08.2018 02:00:00 18,7 15,5 - - 24 13 - - SSW 1008,5 10 0,0
16.08.2018 01:00:00 18,5 15,6 - - 22 12 - - SSW 1009,0 35 0,0
16.08.2018 00:00:00 18,7 16,2 - - 16 9 - - SW 1009,2 10 0,0
15.08.2018 23:00:00 19,1 15,9 - - 22 12 - - SW 1009,4 10 0,0
15.08.2018 22:00:00 19,3 15,8 - - 28 15 - - SSW 1009,7 10 0,0
15.08.2018 21:00:00 19,2 16,0 - - 28 15 - - SSW 1009,8 17 0,4
15.08.2018 20:00:00 19,7 16,6 - - 29 16 - - SSW 1010,0 8 0,4
15.08.2018 19:00:00 22,1 15,3 - - 28 15 46 25 SW 1009,8 10 0,0
15.08.2018 18:00:00 22,9 15,4 - - 31 17 50 27 SW 1010,2 10 0,0
15.08.2018 17:00:00 23,0 15,6 - - 29 16 48 26 SW 1010,8 25 0,0
15.08.2018 16:00:00 23,1 15,4 - - 29 16 54 29 SW 1011,0 10 0,0
15.08.2018 15:00:00 23,3 15,7 - - 31 17 52 28 SW 1011,7 10 0,0
15.08.2018 14:00:00 23,7 15,6 - - 34 18 52 28 SW 1012,0 10 0,0
15.08.2018 13:00:00 22,8 15,6 - - 28 15 - - WSW 1012,2 10 0,0
15.08.2018 12:00:00 21,9 15,5 - - 22 12 - - SW 1012,5 10 0,0
15.08.2018 11:00:00 21,1 15,0 - - 22 12 - - SW 1012,9 10 0,0
15.08.2018 10:00:00 20,1 14,6 17,9 16,7 26 14 - - WSW 1013,0 10 0,0
15.08.2018 09:00:00 18,7 14,7 - - 22 12 - - SW 1013,0 12 0,0
15.08.2018 08:00:00 18,1 14,3 - - 24 13 - - SW 1013,1 10 0,0
15.08.2018 07:00:00 17,2 14,2 - - 21 11 - - SW 1013,4 10 0,0
15.08.2018 06:00:00 17,2 14,0 - - 22 12 - - SW 1013,4 10 0,0
15.08.2018 05:00:00 17,5 14,2 - - 13 7 - - SW 1013,5 15 0,0
15.08.2018 04:00:00 17,7 14,2 - - 11 6 - - SSW 1013,7 10 0,0
15.08.2018 03:00:00 18,1 14,6 - - 21 11 - - WSW 1013,7 10 0,0
15.08.2018 02:00:00 18,8 14,6 - - 16 9 - - WSW 1013,9 19 0,0
15.08.2018 01:00:00 18,9 14,5 - - 24 13 - - WSW 1014,1 10 0,0
15.08.2018 00:00:00 18,6 14,5 - - 8 4 - - SSW 1014,5 19 0,0
14.08.2018 23:00:00 18,1 14,7 - - 13 7 - - WSW 1014,5 19 0,0
14.08.2018 22:00:00 18,2 14,6 - - 9 5 - - SW 1014,7 17 0,0
14.08.2018 21:00:00 18,4 14,2 - - 15 8 - - SW 1014,4 10 0,0
14.08.2018 20:00:00 18,9 14,1 - - 16 9 - - W 1014,5 22 0,0
14.08.2018 19:00:00 19,2 13,8 - - 18 10 - - WSW 1014,2 22 0,0
14.08.2018 18:00:00 19,9 14,4 - - 22 12 - - WSW 1013,9 21 0,0
14.08.2018 17:00:00 18,9 14,7 - - 18 10 - - W 1013,9 10 0,0
14.08.2018 16:00:00 20,1 14,7 - - 24 13 - - W 1013,7 10 0,0
14.08.2018 15:00:00 19,3 14,3 - - 22 12 - - WSW 1013,8 10 0,0
14.08.2018 14:00:00 19,4 14,4 - - 22 12 - - W 1013,8 10 0,0
14.08.2018 13:00:00 20,2 14,5 - - 24 13 - - W 1013,8 10 0,0
14.08.2018 12:00:00 20,4 14,7 - - 21 11 - - WSW 1013,5 10 0,0
14.08.2018 11:00:00 19,0 14,2 - - 18 10 - - W 1013,3 10 0,0
14.08.2018 10:00:00 18,4 13,7 18,0 16,7 16 9 - - W 1013,3 10 0,0
14.08.2018 09:00:00 17,4 13,4 - - 9 5 - - WSW 1013,2 10 0,0
14.08.2018 08:00:00 16,4 13,3 - - 11 6 - - W 1012,9 10 0,0
14.08.2018 07:00:00 14,8 12,8 - - 8 4 - - SW 1012,6 10 0,0
14.08.2018 06:00:00 14,8 12,4 - - 4 2 - - WSW 1012,4 18 0,0
14.08.2018 05:00:00 14,7 12,4 - - 5 3 - - NW 1011,9 10 0,0
14.08.2018 04:00:00 14,3 12,3 - - 8 4 - - NW 1011,8 10 0,0
14.08.2018 03:00:00 14,5 13,0 - - 9 5 - - W 1011,5 10 0,0
14.08.2018 02:00:00 16,0 13,6 - - 18 10 - - W 1011,3 17 0,0
14.08.2018 01:00:00 16,2 14,6 - - 11 6 - - W 1011,0 20 0,0
14.08.2018 00:00:00 16,5 15,5 - - 9 5 - - WNW 1010,4 10 0,0
13.08.2018 23:00:00 16,9 16,1 - - 9 5 - - W 1010,0 9 0,0
13.08.2018 22:00:00 17,5 16,5 - - 5 3 - - NNW 1009,6 24 0,0
13.08.2018 21:00:00 18,4 17,2 - - 8 4 - - NW 1009,1 10 0,0
13.08.2018 20:00:00 18,7 17,2 - - 8 4 - - WNW 1008,4 10 0,0
13.08.2018 19:00:00 19,4 17,8 - - 9 5 - - NW 1007,8 10 0,8
13.08.2018 18:00:00 18,6 17,4 - - 11 6 - - NNW 1007,1 7 0,4
13.08.2018 17:00:00 20,4 16,0 - - 21 11 - - WNW 1006,6 10 0,0
13.08.2018 16:00:00 22,7 16,4 - - 5 3 - - E 1005,9 10 0,0
13.08.2018 15:00:00 23,3 15,8 - - 11 6 - - NNW 1005,7 10 0,0
13.08.2018 14:00:00 24,2 15,7 - - 21 11 - - N 1005,6 10 0,0
13.08.2018 13:00:00 23,3 15,3 - - 13 7 - - NNW 1005,3 10 0,0
13.08.2018 12:00:00 22,1 15,7 - - 9 5 - - NNW 1005,3 10 0,0
13.08.2018 11:00:00 20,1 16,1 - - 11 6 - - NNW 1005,3 10 0,0
13.08.2018 10:00:00 19,4 16,3 17,7 16,7 13 7 - - NNW 1005,2 8 0,0
13.08.2018 09:00:00 18,0 16,3 - - 9 5 - - NNW 1005,3 7 0,0
13.08.2018 08:00:00 17,1 16,3 - - 8 4 - - WNW 1005,1 5 0,0
13.08.2018 07:00:00 16,5 15,9 - - 4 2 - - N 1004,7 4,0 0,0
13.08.2018 06:00:00 16,3 15,7 - - 2 1 - - SSE 1004,4 8 0,0
13.08.2018 05:00:00 16,4 15,8 - - 5 3 - - SSE 1004,4 7 0,0
13.08.2018 04:00:00 16,3 15,8 - - 8 4 - - ESE 1004,6 6 0,0
13.08.2018 03:00:00 16,2 15,8 - - 5 3 - - NE 1004,7 7 0,0
13.08.2018 02:00:00 16,6 15,9 - - 2 1 - - SE 1004,9 10 0,0
13.08.2018 01:00:00 17,1 16,2 - - 8 4 - - SSE 1005,3 10 0,0
13.08.2018 00:00:00 17,0 16,3 - - 5 3 - - ESE 1005,5 10 0,0
12.08.2018 23:00:00 17,6 16,3 - - 8 4 - - SE 1005,6 10 0,0
12.08.2018 22:00:00 18,2 16,2 - - 9 5 - - SSE 1006,0 10 0,0
12.08.2018 21:00:00 19,4 16,0 - - 13 7 - - SSE 1005,9 10 0,0
12.08.2018 20:00:00 20,0 16,1 - - 11 6 - - SSE 1005,7 10 0,0
12.08.2018 19:00:00 20,7 16,1 - - 13 7 - - SSE 1005,8 10 0,0
12.08.2018 18:00:00 20,1 16,3 - - 13 7 - - SSE 1006,2 21 0,0
12.08.2018 17:00:00 19,9 16,4 - - 15 8 - - S 1006,5 10 0,0
12.08.2018 16:00:00 19,8 16,3 - - 21 11 - - S 1006,8 10 0,0
12.08.2018 15:00:00 20,4 16,4 - - 18 10 - - S 1007,2 19 0,0
12.08.2018 14:00:00 21,2 16,3 - - 9 5 - - SSW 1007,3 10 0,0
12.08.2018 13:00:00 20,4 16,3 - - 15 8 - - SW 1007,2 10 0,0
12.08.2018 12:00:00 20,2 17,0 - - 13 7 - - SW 1007,6 10 0,0
12.08.2018 11:00:00 19,3 17,1 - - 11 6 - - S 1007,7 10 0,0
12.08.2018 10:00:00 18,2 16,6 17,4 16,7 11 6 - - S 1007,8 18 0,0
12.08.2018 09:00:00 16,8 16,0 - - 13 7 - - S 1008,0 10 0,4
12.08.2018 08:00:00 16,1 15,5 - - 13 7 - - S 1008,3 7 0,4
12.08.2018 07:00:00 15,9 15,2 - - 11 6 - - SSE 1008,4 10 0,0
12.08.2018 06:00:00 15,9 15,2 - - 11 6 - - SSE 1008,6 9 0,0
12.08.2018 05:00:00 15,9 15,2 - - 13 7 - - SSE 1009,1 8 0,2
12.08.2018 04:00:00 15,7 15,3 - - 15 8 - - SSE 1009,8 6 1,2
12.08.2018 03:00:00 15,8 15,3 - - 16 9 - - SSE 1010,6 2,2 1,0
12.08.2018 02:00:00 16,1 15,2 - - 18 10 - - SSE 1011,4 10 0,2
12.08.2018 01:00:00 15,8 15,2 - - 18 10 - - SSE 1012,2 9 1,4
12.08.2018 00:00:00 15,4 14,9 - - 18 10 - - SSE 1013,1 1,8 1,6
11.08.2018 23:00:00 15,7 14,3 - - 16 9 - - SSE 1014,0 10 0,2
11.08.2018 22:00:00 16,6 14,0 - - 21 11 - - S 1014,9 5 0,0
11.08.2018 21:00:00 19,5 9,8 - - 22 12 - - S 1015,1 25 0,0
11.08.2018 20:00:00 20,4 8,6 - - 18 10 - - S 1015,2 10 0,0
11.08.2018 19:00:00 21,2 7,5 - - 18 10 - - S 1015,8 25 0,0
11.08.2018 18:00:00 21,4 6,5 - - 22 12 - - S 1016,4 10 0,0
11.08.2018 17:00:00 21,8 6,9 - - 16 9 - - S 1016,8 26 0,0
11.08.2018 16:00:00 21,6 6,2 - - 9 5 - - ESE 1017,6 26 0,0
11.08.2018 15:00:00 20,9 6,5 - - 11 6 - - WSW 1018,7 10 0,0
11.08.2018 14:00:00 19,2 7,0 - - 9 5 - - SSW 1019,4 27 0,0
11.08.2018 13:00:00 19,5 7,6 - - 13 7 - - SW 1019,7 10 0,0

tt = temperature
td = dewpoint
tt -20cm = temperature -20cm
tt -100cm = temperature -100cm
ff = wind speed
fx = gusts
dd = wind direction
ppp = reduced air pressure
vv = visibility
rr = precipitation

Next stations